Theta_e
346 346 344 344 344 345 343 342 343 342 342 340 339 340 339 339 341 342 344 345 343 343 341 340 342 342 340 339 340 341 343 343 342 340 340 339 339 337 335 338 336 335 334 333 333 334 335 335 335 334 331 328 331 330 330 330 329 329 329 329 329 328 327 328 328 329 330 330 330 330 329 328 329 331 331 330 329 328 328 328 329 329 328 328 328
347 345 345 345 345 345 344 344 341 341 341 340 340 339 338 338 340 342 342 344 343 342 341 340 338 340 339 340 342 341 342 342 341 341 340 339 340 338 336 336 337 336 338 333 334 335 335 332 331 330 331 329 329 330 330 329 328 329 329 328 328 328 328 327 327 328 328 328 328 328 328 328 329 330 330 329 329 328 328 327 328 327 327 327 329
348 347 346 347 347 346 346 344 341 341 342 342 342 340 339 339 340 341 344 344 342 341 339 340 339 338 339 339 341 342 342 343 342 341 340 341 342 340 336 336 336 337 336 337 335 334 334 330 331 332 331 331 330 331 329 329 329 328 329 328 327 328 328 327 326 327 328 328 328 328 328 328 328 328 329 328 328 328 328 328 328 328 328 328 328
349 347 347 346 345 344 344 344 342 342 343 343 342 340 339 339 341 343 345 344 341 341 343 340 339 338 340 338 340 341 341 342 342 341 341 342 341 339 337 336 336 339 337 337 335 332 331 330 331 333 332 331 327 328 328 328 327 327 325 324 327 326 325 327 327 327 327 327 328 327 327 327 327 328 327 327 327 327 328 329 329 329 329 329 329
347 347 346 344 344 343 341 343 342 343 344 343 343 342 341 340 341 342 342 342 341 340 341 342 341 341 340 338 340 340 342 341 342 342 341 342 341 339 338 337 337 337 337 334 337 333 332 332 333 334 333 331 329 327 330 329 329 328 327 326 326 326 327 327 327 327 327 327 326 327 327 327 327 326 327 326 327 327 328 329 329 329 329 329 330
344 347 347 346 347 346 343 342 342 343 343 344 341 340 339 339 339 340 339 340 339 340 339 340 340 340 341 340 340 342 341 341 340 340 341 342 341 340 339 339 338 338 335 336 336 336 334 332 333 333 333 332 328 327 330 329 329 327 326 325 325 326 327 325 325 326 325 324 325 325 326 326 327 326 326 326 326 328 328 328 329 329 329 329 329
342 345 345 345 344 345 344 344 344 343 340 342 341 341 341 339 337 337 339 338 338 339 339 340 339 338 339 340 339 341 341 340 342 342 341 342 341 341 342 338 338 339 337 337 336 336 334 333 332 331 331 332 330 330 330 330 327 326 325 327 327 327 326 327 327 327 326 326 326 326 326 325 326 326 327 327 327 327 328 328 328 328 328 328 328
344 344 343 342 343 341 342 344 344 345 342 340 342 339 339 339 339 339 336 335 337 338 339 339 338 338 339 339 339 340 339 340 342 342 342 342 341 341 340 339 339 338 336 339 339 337 334 332 332 331 331 331 330 330 330 330 328 328 328 327 325 325 325 324 326 326 326 325 325 325 325 326 327 328 328 328 328 327 328 328 327 328 328 328 328
339 341 341 338 339 342 343 343 344 344 344 342 340 339 341 338 339 339 338 335 334 336 337 338 338 338 339 339 339 340 341 341 341 342 341 341 340 339 339 338 338 334 340 338 338 337 335 332 331 332 330 329 329 328 330 329 329 328 328 326 327 327 326 325 326 326 326 326 326 326 326 326 327 328 327 327 327 327 327 327 327 328 328 328 328
339 341 338 336 337 338 338 341 343 344 344 344 340 340 342 342 339 339 338 336 333 335 336 337 336 336 338 337 340 340 340 340 341 340 340 339 340 340 339 338 338 338 340 341 340 339 337 335 333 334 332 332 329 329 329 329 329 329 329 328 327 326 326 327 326 325 326 326 325 326 326 326 327 328 328 328 328 328 327 327 328 328 328 328 328
339 342 340 338 339 340 340 342 342 344 343 342 342 342 342 343 341 339 339 337 334 336 337 336 337 336 336 340 341 340 339 338 339 339 339 341 339 339 341 339 338 337 340 340 340 341 339 337 333 334 333 333 331 330 331 330 329 330 330 328 327 326 327 328 327 325 325 325 326 326 326 327 327 328 328 328 329 329 329 328 328 328 328 328 329
342 343 339 338 341 341 343 342 344 340 339 337 340 341 343 343 341 340 339 337 337 338 339 337 336 339 337 338 338 338 338 337 338 339 339 340 340 339 338 339 339 338 339 339 340 341 340 340 339 337 336 334 332 333 333 333 334 330 331 330 329 328 329 327 327 327 326 325 325 325 326 326 327 328 328 329 329 329 329 329 329 329 329 329 329
340 339 339 338 339 341 338 343 341 339 337 335 341 341 341 340 338 339 337 334 335 340 340 340 337 334 335 334 334 336 337 337 337 339 339 338 339 338 338 338 339 339 339 340 340 341 341 340 339 339 337 335 334 333 334 334 334 334 333 332 331 331 330 328 328 328 327 326 325 325 325 326 327 327 327 328 328 329 328 328 328 329 329 329 329
338 338 339 341 342 342 341 340 342 336 338 341 340 339 340 339 337 335 336 335 335 338 340 338 331 330 327 327 329 333 335 336 336 337 339 338 339 339 339 339 337 339 339 339 340 341 340 340 341 339 338 339 338 335 336 334 335 333 333 331 332 332 332 330 330 329 327 327 326 326 326 327 327 327 327 327 327 327 327 328 329 329 330 329 329
340 338 338 340 341 341 341 343 342 339 337 339 340 340 341 336 336 334 332 335 335 339 339 338 331 331 333 327 323 324 329 332 337 338 337 339 337 336 337 337 336 338 338 337 337 339 340 339 339 340 339 338 337 337 335 334 338 334 332 333 333 333 333 331 331 329 329 327 327 326 326 327 327 327 327 328 328 328 328 329 329 330 329 329 328
339 338 339 340 340 340 341 343 341 339 338 336 335 335 336 336 337 336 337 332 332 333 339 340 337 331 319 324 324 325 320 324 329 334 338 339 338 335 337 336 336 337 337 335 335 337 337 339 338 338 339 338 337 337 338 336 335 332 332 332 332 332 333 334 331 330 329 328 328 327 327 327 327 328 328 329 330 330 330 330 330 329 329 328 328
339 339 339 339 340 340 340 339 340 339 339 337 334 334 335 336 337 333 336 335 332 333 336 339 338 340 332 327 321 319 320 325 329 330 335 334 335 334 332 334 334 336 336 335 337 337 339 338 339 338 338 338 337 337 338 338 335 337 337 333 333 332 333 333 332 332 330 329 329 328 328 328 328 329 330 331 330 330 330 330 329 328 327 327 327
338 338 338 339 339 339 339 341 338 340 339 338 336 336 336 335 334 336 336 338 337 334 329 338 339 337 335 332 330 324 324 327 324 322 334 336 334 335 334 334 335 335 334 334 335 337 337 336 336 337 338 338 338 339 339 336 337 338 339 338 330 330 330 332 334 332 331 331 330 329 329 329 329 330 330 331 331 331 330 330 328 327 327 326 326
338 339 339 338 338 339 339 339 340 340 338 339 338 335 335 337 340 340 339 336 333 329 330 333 336 335 335 340 339 335 335 331 324 326 323 329 332 332 332 334 334 332 332 332 334 335 335 335 335 336 338 339 337 338 338 338 335 334 328 326 325 325 327 326 329 332 330 330 332 331 330 331 331 331 331 330 330 330 329 328 327 327 325 324 324
339 338 339 339 338 338 338 338 338 340 338 337 337 338 338 340 340 341 341 337 334 333 333 334 332 332 337 337 335 335 335 334 334 328 325 323 324 332 334 333 334 334 332 332 332 334 336 336 335 335 337 336 338 338 340 339 340 339 335 325 326 326 325 326 324 321 329 330 333 333 332 332 331 331 331 330 330 328 328 326 326 325 324 323 322
339 339 339 340 338 337 338 338 338 339 338 337 337 336 338 337 339 339 340 341 340 339 335 336 335 332 333 335 335 333 333 334 334 334 327 324 322 324 327 332 333 333 335 333 333 334 335 335 336 335 336 338 337 335 337 337 337 337 331 322 325 325 325 324 317 318 321 330 331 333 333 332 332 333 331 330 329 328 327 326 325 324 323 322 323
339 339 339 338 338 336 337 337 338 339 338 338 337 336 335 336 336 337 339 338 336 335 333 335 336 335 334 334 330 329 329 330 332 331 331 331 324 322 325 328 324 328 332 332 332 333 334 336 336 335 336 336 335 333 333 334 335 335 328 322 324 324 324 322 316 314 318 327 332 332 332 331 333 333 331 330 329 327 326 326 325 324 323 323 322
340 339 339 339 339 338 338 338 339 338 337 337 337 335 336 338 338 337 336 336 335 335 334 335 336 335 334 334 330 329 329 329 330 331 330 327 326 325 327 327 322 325 331 335 334 332 332 334 334 335 336 335 334 332 333 334 331 327 322 323 322 325 324 318 314 313 319 328 332 332 332 331 332 332 331 330 328 327 326 326 324 323 323 322 322
339 338 339 339 338 338 338 338 340 340 339 339 338 337 338 337 336 336 335 334 335 334 333 330 334 334 333 334 333 332 332 330 329 330 329 328 327 325 325 326 326 326 328 330 332 331 331 331 333 334 334 333 332 332 331 332 332 322 326 322 323 323 324 320 317 316 317 326 328 331 332 332 332 331 330 329 327 327 326 326 324 322 321 321 321
338 338 338 340 338 337 337 337 339 340 339 340 338 335 336 336 335 335 334 333 334 334 333 331 332 329 332 334 332 333 332 333 332 331 332 332 329 325 325 327 324 325 327 329 329 331 331 331 333 333 333 332 330 331 331 333 332 324 322 322 319 319 321 323 322 319 318 318 322 328 330 332 331 330 329 328 327 326 326 324 322 319 320 322 320
337 338 338 339 339 339 339 339 340 341 340 337 333 335 337 335 334 334 333 335 336 333 333 335 337 336 337 336 335 334 333 334 333 333 333 332 328 326 326 326 327 323 326 326 327 326 329 332 333 333 333 332 331 331 332 331 333 323 322 330 323 317 317 320 323 322 317 313 314 318 320 323 327 328 326 326 326 321 317 316 314 314 313 314 319
337 339 337 338 339 339 340 341 340 340 338 335 334 333 334 334 333 334 334 334 334 334 335 335 334 335 334 334 335 334 334 337 334 334 334 333 331 329 327 324 324 325 323 324 326 327 326 331 333 332 333 334 332 332 330 333 328 321 320 333 332 314 316 317 322 322 316 313 310 312 315 318 319 318 319 317 314 317 319 318 315 313 312 313 317
340 339 338 338 337 337 338 339 339 340 338 335 335 335 337 335 333 331 331 332 335 333 335 334 331 331 337 335 334 333 334 334 335 336 334 334 334 333 330 328 323 320 324 322 324 324 330 327 330 332 332 332 332 331 329 324 328 321 323 331 332 327 314 315 319 321 317 314 313 309 310 312 313 313 314 317 319 319 319 318 317 314 312 315 321
338 339 338 338 337 337 337 337 339 340 336 333 334 334 336 334 332 332 334 333 333 335 333 330 333 336 333 336 335 334 337 338 337 337 337 336 335 334 332 329 326 321 320 320 323 321 324 327 324 329 332 332 332 330 324 328 324 329 332 331 330 332 316 315 314 314 313 312 314 312 312 314 314 316 318 320 320 320 319 317 316 315 313 319 320
339 338 337 337 337 337 336 336 338 339 338 336 334 334 334 334 333 336 337 337 335 335 334 333 334 334 334 333 332 330 335 337 337 339 338 337 335 335 333 331 329 324 323 320 320 325 327 329 328 326 330 330 331 328 329 328 319 326 330 329 330 331 310 312 310 309 309 311 310 307 308 311 313 317 319 320 320 319 316 315 314 314 316 320 319
338 337 335 334 336 336 336 336 336 338 339 336 332 331 335 336 336 336 336 335 334 334 332 333 336 335 331 330 332 334 336 338 339 339 339 338 336 335 334 334 331 330 327 324 319 324 328 325 327 329 329 330 329 327 327 325 321 326 329 330 328 316 314 315 310 310 311 311 308 308 311 312 311 313 316 319 319 317 315 316 317 317 319 319 318
339 337 335 334 335 335 335 335 335 335 336 336 334 333 335 335 335 335 335 334 334 333 333 336 335 334 332 330 332 334 338 338 338 338 337 338 337 334 334 334 333 333 331 326 321 321 329 331 328 328 330 331 328 324 325 324 324 317 328 327 327 316 325 326 310 310 310 310 309 314 319 316 312 314 317 319 319 318 318 318 319 318 318 315 313
337 336 334 333 334 335 335 334 335 335 336 336 335 335 334 334 335 335 334 333 332 332 332 332 332 333 333 331 333 336 339 337 336 337 336 335 336 336 334 334 332 334 332 329 324 323 329 332 328 326 329 328 324 323 322 323 323 324 322 325 326 329 328 328 326 308 308 308 308 309 312 308 309 317 318 316 318 317 315 313 314 312 314 314 310
336 336 335 335 335 337 336 335 336 336 336 335 334 334 333 332 334 334 334 333 333 332 333 332 331 333 331 332 331 336 338 336 336 334 334 334 334 334 332 332 330 332 334 328 327 325 324 330 327 328 326 327 323 325 325 324 323 322 320 322 323 323 320 324 327 326 306 309 307 307 309 308 307 311 311 308 309 311 311 309 310 309 311 309 304
334 335 335 336 337 335 335 336 334 335 335 334 334 334 333 333 332 333 332 332 332 333 333 333 330 331 332 334 332 334 336 337 336 334 333 333 333 332 332 331 329 330 330 329 326 324 323 323 326 323 325 325 326 322 325 326 325 320 319 318 318 317 318 320 320 325 306 306 305 307 307 307 307 306 308 308 308 308 308 307 308 308 307 307 304
332 334 335 336 337 336 336 334 335 335 335 335 334 333 333 333 332 332 332 332 332 333 334 333 331 331 332 333 334 335 335 334 331 333 331 333 333 331 331 331 329 328 332 331 328 326 321 321 323 321 322 323 323 323 323 324 324 320 319 318 318 316 316 315 316 319 312 305 305 305 306 307 307 306 306 307 308 307 307 307 307 307 305 305 305
332 332 333 336 337 335 334 332 334 335 335 335 334 334 334 333 334 333 332 332 332 334 336 335 332 331 333 335 335 335 335 332 331 331 332 334 333 331 330 329 329 331 332 331 329 325 324 322 322 325 324 323 322 322 320 318 319 319 318 318 315 316 318 318 315 316 307 303 304 304 304 305 305 305 306 306 306 306 305 306 306 305 305 305 304
331 332 333 334 335 333 335 335 336 334 336 335 334 334 335 334 334 333 334 333 333 335 335 335 332 332 333 334 334 334 333 331 330 332 333 333 331 331 329 328 328 331 332 331 329 328 324 322 323 322 324 321 320 321 320 321 317 315 314 316 317 318 318 318 317 315 316 313 314 311 304 303 303 303 305 305 305 304 304 305 305 305 304 304 303
329 330 332 331 330 333 336 336 336 337 336 335 335 334 332 331 330 330 331 334 335 335 334 332 333 332 334 334 335 335 334 333 333 333 333 334 332 330 330 330 328 331 331 331 330 328 327 326 322 323 321 322 322 318 319 321 320 317 315 315 314 315 317 318 318 318 318 316 312 308 310 308 307 307 305 304 305 304 304 304 304 304 304 303 302
329 329 330 331 332 334 334 335 336 337 336 335 334 332 331 330 331 332 333 335 335 333 331 331 332 334 335 334 334 334 335 334 334 335 335 333 333 333 332 331 331 330 330 330 329 327 325 326 323 320 320 320 321 321 319 319 317 316 316 317 315 315 317 319 319 319 318 319 319 316 309 306 305 305 302 303 303 303 302 303 303 305 304 302 301
331 330 331 330 328 330 333 335 335 337 335 332 336 332 332 332 330 329 334 333 331 331 330 331 334 335 335 335 336 335 335 324 315 323 326 327 334 332 333 333 332 330 331 329 328 326 327 324 322 322 319 318 319 319 317 317 316 315 318 318 317 318 318 318 318 319 318 318 320 318 316 318 315 315 313 313 312 306 306 303 306 304 302 301 300
330 329 329 329 329 329 331 331 332 332 330 331 328 318 319 326 329 330 332 332 331 331 332 332 334 335 334 335 329 318 317 316 309 305 306 307 307 323 335 334 332 331 328 327 323 321 323 323 322 320 318 317 317 319 318 319 321 322 319 319 316 317 317 317 319 321 321 322 320 319 318 319 322 321 320 320 317 320 323 315 312 308 303 300 300
329 329 328 328 329 330 329 329 330 329 329 330 315 307 310 312 326 329 331 332 334 334 334 334 333 334 335 335 333 322 320 315 312 296 297 298 297 297 296 301 316 336 330 328 326 325 326 323 321 320 319 318 319 321 322 322 322 320 319 319 319 319 319 317 315 317 322 323 322 321 322 324 325 323 323 323 323 319 314 308 300 301 300 299 299
329 330 329 327 327 328 329 328 328 328 327 313 302 303 307 309 315 330 329 328 332 334 334 334 334 334 335 335 334 333 334 330 325 318 306 296 296 296 296 296 295 295 302 325 330 326 323 320 318 318 318 319 319 320 320 320 319 320 322 323 323 322 321 319 319 317 323 326 324 322 321 321 325 322 322 320 317 312 306 301 299 299 299 299 299
327 326 326 327 327 328 327 326 326 327 324 300 297 300 303 306 309 319 332 332 334 334 334 333 334 333 333 332 332 331 323 317 322 322 318 312 298 297 299 301 301 300 298 297 302 331 326 322 323 323 324 322 321 323 326 328 326 326 323 322 323 323 322 320 319 319 322 323 324 322 319 321 322 321 320 321 318 312 310 301 298 299 298 299 298
325 326 326 325 325 326 326 326 326 326 322 300 295 298 301 303 306 314 332 335 334 334 333 333 333 333 333 331 329 327 325 325 323 319 320 318 319 322 324 325 325 318 308 306 309 309 321 329 329 327 329 330 326 328 328 329 328 324 323 322 323 322 322 321 320 319 318 320 320 320 317 319 319 319 316 317 316 312 308 302 298 298 298 298 298
317 316 316 317 317 318 321 324 324 323 315 295 294 296 298 301 305 312 333 333 330 331 331 331 331 332 332 331 330 327 326 324 324 321 322 323 326 327 326 323 319 315 312 313 318 329 331 332 330 328 327 326 327 327 327 329 329 329 328 326 326 325 321 321 320 318 316 316 317 317 312 315 316 315 315 316 316 315 310 301 298 299 298 298 297
311 313 313 314 315 317 319 321 317 313 306 294 295 296 298 301 308 328 330 330 329 328 329 328 325 329 330 330 328 326 326 326 309 305 315 327 325 322 320 319 316 311 305 297 294 298 311 318 319 317 313 304 300 310 310 317 327 326 323 323 324 324 319 317 315 314 311 312 313 314 313 314 315 312 313 315 316 314 313 311 299 300 299 298 298
306 306 307 308 309 312 312 312 311 310 309 298 296 297 299 302 314 328 327 326 325 325 326 327 326 327 328 327 326 325 323 319 304 302 303 311 321 318 317 315 315 314 310 306 296 293 293 292 292 292 293 293 294 294 295 295 306 317 324 320 319 320 317 314 311 311 309 310 310 313 314 310 311 308 309 312 312 311 310 311 313 300 300 300 298
302 302 302 301 302 304 304 306 308 308 308 299 295 297 298 300 315 324 322 321 320 318 315 316 317 315 312 311 320 321 320 318 298 301 304 316 320 320 319 317 315 314 312 311 309 303 294 294 294 294 295 296 297 297 296 297 299 308 322 317 318 316 314 313 310 310 308 307 306 310 311 306 309 308 305 308 309 312 311 309 309 308 301 299 296
302 301 300 299 299 300 301 301 301 303 305 301 295 295 295 299 315 321 320 318 314 311 312 312 312 311 310 305 303 310 314 305 295 300 300 313 323 322 321 319 316 314 314 314 313 313 313 314 314 314 311 307 312 313 308 298 300 307 316 315 315 312 309 309 310 308 305 304 306 311 308 306 306 306 305 304 303 307 310 308 308 308 308 309 309
Wind_Speed
5 6 5 5 6 6 6 6 7 6 7 6 7 7 6 7 6 6 6 6 6 6 6 6 4 4 4 4 2 4 4 3 3 3 4 5 5 8 6 6 4 5 7 6 5 5 7 7 8 9 8 5 10 7 7 7 7 7 8 7 7 6 6 8 8 9 10 10 11 11 10 9 12 13 13 13 12 12 12 12 13 14 13 12 13
5 4 5 5 5 6 6 6 7 6 6 6 6 6 7 7 7 6 6 6 6 5 5 5 5 4 4 4 2 3 3 4 3 3 5 4 5 7 6 5 5 5 6 2 6 6 7 6 6 6 8 7 7 7 7 7 7 8 7 8 8 7 7 6 7 8 8 9 9 10 10 11 12 13 13 13 13 13 13 14 13 13 13 13 14
5 5 5 5 5 5 5 6 6 7 7 6 6 6 6 6 7 6 6 6 6 5 5 5 5 5 4 5 3 3 3 4 3 3 4 4 5 6 7 6 5 5 4 5 4 5 5 4 7 8 7 7 7 9 7 7 7 8 9 7 7 8 7 6 7 7 8 9 10 11 11 11 12 12 13 13 13 13 14 13 13 13 14 15 14
5 5 5 5 6 6 6 6 6 6 7 7 6 6 6 6 7 6 6 6 5 6 5 5 5 5 4 5 4 4 3 3 4 4 3 3 4 5 6 7 5 4 5 4 2 3 3 4 6 7 6 7 5 6 7 7 6 7 6 6 8 6 7 7 6 7 7 9 10 10 11 11 11 12 12 12 12 13 14 14 14 14 14 14 14
4 5 4 4 3 5 6 7 7 6 6 8 8 6 5 6 7 6 7 6 6 6 5 4 4 4 4 5 4 4 4 4 4 4 4 4 3 4 5 6 7 7 6 5 5 4 3 3 4 5 7 7 6 5 8 7 7 7 7 7 7 6 6 7 7 7 8 9 8 10 10 11 11 12 12 12 11 11 12 12 13 13 13 14 15
4 5 3 4 4 4 5 5 6 6 6 7 8 7 7 7 7 8 7 7 7 6 5 5 4 4 4 3 3 3 3 3 4 4 4 4 3 3 4 5 6 6 7 7 7 5 2 4 6 6 7 7 6 5 9 7 7 7 7 6 7 7 8 6 7 7 7 7 9 9 10 11 11 12 12 11 11 11 12 12 13 13 13 13 13
7 5 4 3 4 3 3 4 4 5 6 7 8 8 7 8 7 8 7 7 7 6 6 5 5 5 5 4 3 4 3 3 4 4 4 4 3 3 2 3 4 5 5 6 7 7 7 7 4 5 8 7 6 7 7 8 6 6 7 6 7 7 7 7 7 8 8 8 9 10 10 11 12 12 12 12 11 11 11 12 12 12 12 12 12
5 4 2 3 3 4 3 3 4 5 5 6 7 8 8 7 8 8 7 8 7 6 6 6 5 5 4 4 4 4 3 3 3 3 3 4 4 3 3 3 3 3 4 4 4 7 7 5 5 6 8 6 7 7 7 7 7 7 7 6 6 7 6 6 8 8 8 8 9 9 10 11 11 11 12 12 11 11 11 11 11 12 12 11 12
2 2 2 2 1 3 2 5 5 5 4 5 7 8 7 8 8 8 8 7 8 8 6 6 5 5 5 5 5 5 4 3 3 3 3 3 3 4 3 4 4 3 3 2 4 6 8 7 7 8 7 6 4 6 8 7 7 7 7 6 8 7 7 6 7 7 7 8 8 9 9 10 11 11 12 11 11 11 11 11 10 11 10 10 10
5 5 4 4 7 6 5 6 6 5 4 5 6 7 7 7 7 8 8 8 7 7 7 6 6 6 5 6 5 5 4 5 4 4 4 4 4 4 3 3 3 3 3 2 3 5 6 7 7 6 7 6 5 5 6 7 7 7 7 7 7 7 7 8 7 7 8 8 8 9 9 8 10 10 11 11 11 12 11 11 10 10 9 9 9
7 5 4 6 7 7 6 6 5 4 3 5 5 5 6 6 7 7 7 7 7 7 7 6 6 5 5 5 6 6 5 4 4 4 4 3 3 3 3 4 3 4 4 4 3 4 5 6 7 7 7 5 6 4 6 6 6 8 9 8 5 6 7 7 7 6 7 7 8 7 7 8 8 8 9 10 10 10 10 10 9 9 8 9 8
5 4 5 4 6 7 6 6 5 4 4 3 5 5 5 6 7 6 6 6 6 6 6 6 5 5 5 5 5 5 5 5 5 5 4 4 4 4 3 3 3 3 4 4 3 3 4 4 3 5 6 7 5 5 5 4 2 5 9 10 9 7 7 8 7 8 7 6 7 7 7 8 8 8 9 9 9 10 10 9 8 7 7 7 8
5 5 5 7 8 6 7 6 6 4 5 8 6 4 4 4 4 5 7 7 7 7 6 6 6 5 6 7 6 5 5 6 6 5 5 5 4 4 3 3 3 4 4 3 3 3 3 4 4 2 5 5 7 5 4 5 7 4 3 6 9 9 9 7 7 8 8 8 6 7 7 7 7 7 7 8 8 8 8 8 7 6 8 9 8
6 5 6 7 7 6 6 7 5 6 7 5 5 5 6 6 6 5 5 7 7 7 6 7 7 7 8 7 5 5 5 5 6 5 5 5 4 4 4 4 4 3 3 4 4 3 3 3 2 3 3 5 4 6 4 6 7 7 6 1 4 7 9 8 9 9 9 8 7 7 7 6 7 6 6 6 6 7 7 6 6 8 10 10 11
6 3 5 8 8 7 6 5 5 6 7 6 6 7 7 7 7 6 6 6 7 6 8 9 7 8 3 3 5 6 5 6 5 6 6 6 5 4 5 6 5 4 3 2 3 4 3 2 3 2 2 1 3 6 8 6 5 9 8 6 4 1 3 7 10 9 9 8 7 7 6 6 5 5 5 6 6 6 6 7 7 9 9 9 9
9 9 9 9 9 8 7 5 6 7 7 7 8 7 8 7 7 6 8 8 8 8 8 9 5 7 8 7 6 7 5 7 7 7 7 7 6 6 5 5 5 4 1 3 2 2 2 3 3 3 2 2 1 1 2 7 8 7 6 6 5 6 6 4 8 10 10 8 8 8 6 6 6 6 5 5 4 4 6 7 10 9 9 8 8
9 12 9 9 8 8 7 7 6 8 6 7 8 8 8 8 8 10 10 9 9 8 9 9 10 4 4 7 5 4 7 8 8 7 6 6 7 7 8 7 6 5 3 2 1 2 3 3 2 1 2 2 3 2 2 3 6 4 7 7 5 5 6 5 4 11 9 9 9 8 7 7 7 6 5 5 5 6 8 11 10 8 8 8 8
11 8 7 8 9 9 9 7 8 7 9 8 8 7 9 9 11 10 9 7 6 4 7 8 8 7 4 4 2 1 2 5 8 6 5 5 6 6 3 6 5 5 4 4 5 3 3 3 4 2 2 2 3 1 1 1 2 3 3 6 7 2 1 3 6 9 9 10 9 9 8 8 6 6 6 6 7 9 11 11 9 8 8 8 8
9 7 8 10 10 10 10 10 8 7 8 7 7 9 9 9 9 8 8 7 6 6 10 8 6 8 10 4 3 3 4 4 6 4 7 6 6 6 6 5 6 6 7 7 5 5 3 2 4 3 2 3 2 0 2 1 2 5 9 8 5 3 3 4 3 4 10 10 10 10 10 8 7 7 7 6 10 11 11 10 9 8 8 8 8
8 10 10 9 9 9 10 10 10 8 8 8 8 7 6 7 8 9 8 7 9 11 9 8 9 9 8 7 4 3 2 3 2 5 5 7 7 6 6 6 6 5 4 5 6 5 5 4 3 3 5 3 2 2 2 2 2 3 4 6 3 2 3 4 4 5 4 4 10 10 9 7 7 7 7 10 12 10 10 10 9 9 9 9 8
9 9 9 9 9 9 10 10 10 9 8 8 9 7 8 8 7 7 9 8 8 4 6 8 8 8 8 7 6 6 5 5 4 4 4 6 8 9 8 7 6 5 4 4 4 4 4 5 5 5 4 2 3 1 1 2 2 3 7 7 2 2 3 4 5 5 3 2 7 8 8 9 9 9 12 13 11 10 10 10 10 10 9 9 9
8 9 9 9 9 10 10 11 11 8 8 9 8 6 5 6 8 9 9 9 8 5 6 7 7 6 7 7 7 5 5 6 5 5 4 4 3 8 9 9 8 7 7 5 6 6 5 4 5 4 3 3 2 3 1 2 1 1 6 6 3 3 3 6 6 6 5 5 8 9 8 8 9 12 14 11 11 11 10 11 11 10 10 9 9
7 7 9 9 9 10 9 10 9 7 8 9 8 7 7 9 8 11 10 10 6 7 8 9 7 6 8 8 8 8 7 7 6 5 4 5 4 5 7 9 9 7 7 6 4 6 6 5 4 3 3 3 3 2 3 2 1 7 5 4 4 4 4 6 6 7 6 7 9 9 7 7 11 14 12 11 10 11 11 11 10 10 10 10 9
7 8 8 9 9 9 9 9 8 8 9 7 8 8 8 7 8 8 9 9 9 6 7 9 9 4 7 7 6 6 6 5 4 4 5 5 5 5 6 6 6 6 7 6 9 7 6 6 5 5 5 3 3 2 3 3 8 7 4 6 3 5 5 6 6 7 8 8 7 7 7 8 14 12 10 10 10 10 10 10 10 9 9 9 10
8 8 7 9 9 10 10 10 9 9 8 7 6 6 9 9 8 10 11 11 9 8 7 8 8 11 9 9 8 8 5 3 2 5 4 3 4 5 5 6 6 6 8 8 6 6 5 6 5 5 5 5 5 4 3 1 4 6 4 9 2 5 6 7 8 8 8 7 6 6 7 12 14 10 9 9 9 9 10 8 7 6 6 7 8
8 7 7 8 8 9 10 11 10 9 8 6 6 8 9 9 10 10 11 8 7 9 10 11 9 11 9 9 9 7 6 6 5 4 5 5 6 6 5 5 5 6 7 8 8 7 5 6 6 5 5 4 4 4 2 4 6 5 5 5 6 5 6 7 7 6 5 4 4 5 12 7 7 6 8 9 8 7 9 9 7 5 5 5 6
8 7 7 8 8 8 9 9 9 8 8 7 7 10 10 9 10 10 7 6 9 10 9 10 10 8 9 9 6 4 5 5 5 6 6 6 6 6 6 7 6 5 7 7 8 9 7 6 6 6 5 4 4 4 4 5 8 5 5 5 6 6 7 6 5 5 5 4 4 4 6 6 3 9 7 7 9 9 9 8 6 5 4 3 2
8 8 8 8 9 9 9 9 8 8 7 7 7 7 8 8 7 9 9 9 10 14 10 8 9 13 9 7 7 8 6 6 6 6 6 6 5 6 6 6 7 7 6 6 7 7 11 7 6 6 6 5 4 5 5 7 6 7 9 4 6 6 5 5 5 5 4 4 5 5 6 7 8 8 8 9 9 9 9 7 5 4 4 3 4
8 8 8 9 9 10 9 10 10 8 7 8 8 10 8 6 6 11 13 12 11 10 8 10 10 7 9 11 4 6 8 7 7 6 6 5 5 6 7 6 6 6 7 7 5 5 8 7 7 7 6 7 5 6 6 5 8 7 4 5 6 6 6 5 5 5 5 5 7 7 7 7 7 8 8 9 9 9 8 7 6 5 4 4 5
7 7 7 9 9 10 10 10 10 10 10 9 9 9 11 11 12 11 9 9 8 6 3 3 7 7 2 4 3 7 7 7 7 7 6 6 6 6 7 6 6 6 6 7 7 5 6 7 6 7 7 8 6 6 4 6 8 7 5 5 6 7 7 7 7 7 7 6 7 7 8 7 7 8 8 9 9 9 8 8 7 6 4 5 6
8 7 8 8 9 10 10 10 11 10 9 9 8 7 8 7 9 8 8 8 8 7 5 7 2 2 6 8 6 9 7 7 7 7 6 6 6 7 7 6 6 5 5 6 6 4 6 8 6 7 7 8 6 6 5 6 6 3 5 5 8 11 10 7 7 6 7 7 6 5 5 6 7 8 9 9 8 8 8 7 6 5 6 7 6
8 9 9 9 10 10 10 10 10 10 10 9 10 10 9 8 8 8 8 10 8 8 7 7 5 4 7 9 9 9 7 8 7 7 7 7 6 7 7 6 6 6 5 5 5 8 5 7 5 7 9 7 8 8 7 6 6 9 5 6 10 11 8 8 7 7 4 3 4 3 6 7 7 7 8 8 7 7 7 8 7 8 7 6 7
8 9 10 11 11 10 11 11 11 10 10 9 9 8 8 8 8 9 9 9 9 8 8 7 6 9 10 12 12 9 8 8 8 7 7 8 8 7 7 7 7 7 7 6 6 7 5 4 7 7 8 8 7 7 8 7 7 5 4 7 9 7 6 7 8 9 7 7 6 4 4 6 6 7 8 8 8 8 8 8 8 7 7 6 7
9 9 11 10 11 11 12 11 11 11 10 10 10 9 10 10 9 7 9 10 10 10 10 10 10 5 8 9 11 10 9 9 8 10 9 8 9 8 8 8 7 8 7 7 7 5 7 5 7 7 7 7 7 6 7 7 7 6 7 6 5 5 4 5 7 8 11 8 7 6 5 6 5 5 7 7 7 8 8 8 8 8 8 8 8
9 10 10 11 11 12 12 11 11 11 10 10 10 10 11 11 11 9 10 11 11 11 11 10 9 9 12 10 9 9 8 9 9 9 9 9 9 10 9 8 8 8 7 6 8 8 11 9 7 7 7 6 4 7 6 6 6 6 6 6 5 4 3 3 3 7 12 10 9 8 7 7 7 7 6 6 7 8 8 8 8 8 9 8 9
9 9 11 11 11 11 10 11 11 11 11 10 10 11 11 12 11 11 11 10 11 11 11 11 9 7 10 9 9 10 10 9 10 9 8 9 8 8 8 8 8 8 7 5 7 9 9 9 8 8 7 7 5 6 5 6 6 5 5 5 4 4 5 5 4 5 11 12 11 9 9 8 8 7 7 8 8 8 7 8 8 9 9 9 9
9 9 10 11 10 11 10 12 12 11 11 11 11 11 9 10 11 11 11 11 10 10 10 10 9 10 11 10 10 10 10 10 10 9 9 10 9 8 9 9 8 8 7 7 7 10 10 9 8 6 7 6 6 5 6 6 6 6 5 5 5 5 5 3 3 7 12 11 10 9 9 9 9 9 9 9 8 8 9 8 9 9 9 9 9
9 10 10 10 9 12 12 12 11 11 11 10 11 10 10 6 7 9 8 10 10 10 10 8 8 9 10 11 10 11 11 11 10 10 9 11 10 9 10 10 9 9 8 7 6 8 9 9 8 7 6 7 6 6 6 5 6 6 6 5 4 4 4 4 4 4 6 6 6 7 6 7 10 11 11 10 10 10 9 9 9 9 10 10 10
8 8 11 8 10 12 11 11 11 12 10 10 11 9 6 7 6 8 10 10 10 9 8 9 8 8 10 11 11 11 12 12 11 11 10 10 9 10 9 8 10 10 8 7 7 7 7 9 8 8 7 6 6 6 6 5 4 5 6 6 5 6 5 4 5 5 4 5 5 5 5 2 6 11 12 11 11 11 11 10 10 11 11 11 11
9 9 10 9 9 9 10 10 10 10 10 9 10 9 8 9 9 8 10 10 10 8 7 7 9 12 11 10 10 10 11 12 11 10 9 9 9 7 7 7 8 10 9 8 6 6 7 8 8 8 7 7 6 4 6 6 5 4 4 4 5 6 5 5 4 3 4 4 5 7 6 6 7 7 11 14 13 13 11 9 10 10 10 9 9
8 9 7 7 11 11 10 8 9 7 8 9 8 7 7 8 7 11 10 10 11 9 9 11 11 9 10 9 11 7 4 12 12 4 3 1 7 11 9 8 8 7 7 7 5 3 7 8 8 7 7 8 7 7 6 6 6 5 4 3 3 2 3 4 5 3 1 3 4 2 5 4 5 7 7 8 8 10 11 12 8 12 9 7 7
7 8 6 3 6 9 9 8 7 4 4 4 6 10 8 8 10 10 9 9 9 10 11 10 10 10 10 9 8 12 8 7 4 8 6 8 11 8 4 8 10 8 7 6 3 3 8 8 7 8 8 7 7 7 6 5 4 3 4 4 5 4 3 2 3 3 1 2 1 3 2 3 1 2 4 2 8 6 5 4 7 8 7 4 3
8 8 9 7 6 6 7 8 8 6 5 4 2 11 14 18 12 8 9 7 7 10 10 10 10 10 9 8 7 8 9 8 6 10 9 10 10 6 10 13 8 5 5 5 5 8 11 7 6 6 6 6 6 6 5 6 5 5 4 4 4 4 4 5 5 4 4 3 2 2 3 4 2 3 1 2 6 9 8 7 9 11 9 8 5
7 7 8 9 8 8 6 7 7 7 6 4 5 9 9 8 8 10 10 9 10 10 10 10 9 9 9 7 6 6 6 6 7 7 9 9 9 11 12 12 12 12 6 5 9 10 6 6 6 6 6 6 6 5 5 5 5 4 3 3 3 2 2 3 2 3 4 4 3 3 4 2 0 1 1 6 8 8 9 8 8 7 7 6 7
7 8 7 7 8 8 6 7 7 5 3 6 6 10 9 9 5 6 8 10 10 10 10 10 10 9 8 7 7 5 6 8 7 7 7 7 9 12 13 13 14 13 11 12 13 6 5 5 6 6 5 6 6 5 4 3 2 4 3 4 3 2 1 1 2 3 3 6 5 4 2 4 3 1 2 5 7 8 7 6 4 4 4 5 5
6 6 3 2 2 3 5 5 7 5 4 6 7 9 9 9 6 6 8 8 7 7 7 7 7 8 8 8 7 6 7 7 7 8 8 9 10 11 11 10 9 10 12 13 11 13 9 6 6 7 6 3 6 6 5 2 1 3 4 3 2 2 2 5 5 4 3 4 4 4 2 3 3 2 1 3 8 7 7 6 4 5 6 7 9
7 7 7 5 5 5 2 3 5 4 2 5 6 8 9 9 6 6 6 5 6 6 6 6 4 5 6 6 7 8 9 9 7 10 11 11 11 10 11 10 10 10 10 10 9 6 8 8 9 9 8 7 5 5 3 2 2 3 3 4 3 5 6 5 4 4 4 5 5 4 2 2 3 4 2 1 2 3 7 8 9 4 5 5 7
8 7 7 7 6 5 5 3 4 3 3 2 4 5 10 10 9 6 6 6 6 6 7 8 6 3 4 6 8 9 11 9 8 8 9 10 10 12 11 10 11 11 11 10 11 13 12 9 9 9 7 8 9 8 7 6 1 4 4 3 4 6 6 5 5 4 4 5 5 5 2 1 3 4 5 4 2 3 4 6 9 6 4 3 5
10 9 8 8 7 8 8 8 8 6 5 2 6 1 6 11 8 7 8 7 6 7 6 7 8 6 5 8 9 10 10 9 7 11 14 14 11 10 11 8 8 10 10 9 13 16 18 18 17 15 14 13 13 12 12 13 10 8 2 3 3 3 5 5 6 3 4 4 6 6 4 2 3 4 5 5 1 4 3 3 1 7 4 4 6
9 8 6 9 9 8 10 10 8 8 5 6 9 6 5 8 2 8 7 8 7 7 7 7 8 8 11 13 11 11 7 8 10 4 6 13 12 10 11 11 9 10 9 8 8 9 13 14 14 13 13 13 15 15 15 14 15 10 4 1 3 3 2 1 4 3 4 4 5 6 4 2 3 2 5 5 2 6 2 2 4 0 6 9 6
10 7 7 10 8 10 10 11 17 12 7 8 12 10 10 8 6 7 8 8 8 7 6 7 7 7 8 11 13 10 10 7 9 4 5 4 12 11 11 11 10 11 9 9 9 10 8 9 9 9 10 11 11 10 11 14 14 12 10 8 4 3 3 1 4 5 5 5 6 8 5 3 3 2 3 4 4 3 1 3 3 4 6 7 0
Wind_Direction
186 187 190 194 192 189 187 188 183 184 177 189 185 186 193 197 188 189 179 174 167 162 160 151 154 148 152 136 151 111 111 115 107 104 108 117 133 117 106 84 102 139 135 127 118 116 110 110 109 108 102 101 96 96 99 99 94 88 91 86 81 82 88 79 82 86 79 76 76 75 79 83 83 78 78 80 75 74 78 80 77 74 72 73 71
188 191 181 187 197 194 193 189 187 183 187 187 187 186 189 197 197 190 178 170 170 167 173 160 162 150 154 141 146 135 128 127 127 126 109 128 126 123 94 83 67 57 28 116 131 121 121 118 122 105 98 97 103 97 100 100 94 93 86 86 85 83 91 91 95 85 79 78 79 82 83 85 84 82 84 83 79 79 79 80 81 80 82 80 77
190 196 184 185 188 190 196 193 196 187 191 191 190 190 191 198 204 197 176 179 172 170 189 167 168 158 151 155 163 140 145 138 137 127 136 133 139 144 121 91 72 53 44 45 77 111 126 116 116 118 115 114 120 121 107 103 98 93 91 94 88 90 98 96 93 88 89 85 87 92 90 88 85 83 85 84 85 83 80 85 86 84 85 82 79
197 192 196 185 190 192 195 200 201 196 193 187 191 190 190 197 206 196 189 182 177 183 186 179 185 154 171 166 164 150 150 143 139 144 144 130 137 137 146 135 98 84 111 90 90 90 112 125 123 122 120 123 105 110 102 93 95 92 94 92 99 105 87 86 98 97 91 93 95 95 95 87 87 90 86 88 87 78 77 80 80 82 83 81 77
191 199 203 192 204 200 204 208 209 201 195 189 189 188 190 190 200 203 197 191 189 192 192 182 182 152 188 163 161 163 149 158 152 157 147 149 146 151 150 157 145 127 116 121 90 98 103 93 87 98 123 128 113 113 110 111 110 116 110 104 103 91 87 83 82 85 85 92 96 96 96 94 94 95 94 89 84 77 79 80 82 80 78 79 78
209 190 189 182 187 199 210 213 212 210 200 193 197 194 192 199 198 201 196 198 198 196 197 187 172 173 189 160 187 149 166 166 161 158 150 157 157 163 148 157 160 152 145 124 106 88 130 160 124 125 124 121 111 119 119 117 112 109 103 108 96 106 114 111 107 106 102 104 103 105 102 102 98 94 92 91 92 88 82 82 82 82 82 81 81
216 177 170 188 194 205 213 214 207 211 214 202 203 200 201 200 198 205 197 207 206 201 206 197 184 188 176 183 175 155 182 179 163 161 166 139 189 145 141 149 158 162 144 147 121 102 84 71 96 139 125 122 121 123 115 118 115 112 109 95 113 114 101 106 117 104 108 105 106 107 107 106 104 101 102 99 98 96 92 90 83 78 75 76 77
229 149 182 190 189 210 200 223 216 218 219 208 209 204 206 206 201 203 199 203 201 202 204 196 195 187 169 187 173 178 183 181 174 164 162 173 173 139 158 154 156 146 129 147 149 117 111 114 94 110 121 132 136 128 119 121 123 115 113 120 109 100 95 105 107 116 118 116 111 109 107 106 107 102 99 100 100 97 94 84 80 76 76 70 68
287 276 203 126 345 244 202 205 207 213 215 216 213 206 199 205 203 204 210 203 202 204 204 191 195 174 178 194 175 180 175 179 182 180 166 194 150 153 164 154 145 135 141 156 149 140 135 129 112 103 120 127 108 113 128 124 132 122 124 126 124 135 129 109 107 103 101 112 113 110 108 106 106 106 102 102 103 96 93 88 81 75 71 73 75
249 169 198 138 211 223 228 214 202 203 211 218 218 210 195 206 201 205 207 210 207 204 202 197 198 191 189 191 170 180 178 185 176 186 190 176 166 169 163 149 154 144 136 158 134 134 142 134 117 103 106 122 125 113 119 129 134 135 134 144 143 131 126 126 115 114 118 119 117 111 111 106 105 106 107 104 101 100 98 95 88 84 83 78 74
208 185 160 182 210 208 217 203 206 205 214 218 212 208 191 200 206 200 207 220 213 206 205 198 195 198 191 172 176 185 184 175 181 198 190 172 161 169 169 165 168 153 148 165 157 143 148 143 155 154 140 137 151 151 147 146 139 137 144 147 147 139 123 124 126 135 121 118 118 120 117 119 117 114 115 106 106 107 102 101 101 98 91 82 75
180 176 163 188 216 208 209 206 197 184 202 245 229 202 189 189 202 196 195 208 218 214 205 203 194 175 164 178 181 174 180 177 199 183 194 175 178 183 177 160 175 160 164 159 169 144 147 152 157 145 143 156 151 122 146 122 120 151 151 158 156 154 139 140 146 130 132 131 129 127 125 120 120 119 115 111 108 107 108 106 105 99 82 84 85
180 171 190 207 224 218 220 203 198 173 202 207 191 190 187 186 176 184 200 196 208 204 199 201 168 172 176 181 173 174 177 190 193 192 200 188 174 189 168 187 182 177 167 149 152 163 151 151 164 165 136 149 164 143 129 143 132 139 117 151 165 158 154 157 143 139 147 145 134 132 134 133 130 114 106 117 115 113 112 107 93 87 97 92 89
199 205 214 218 220 214 213 216 182 200 195 170 167 183 186 187 167 185 210 211 215 204 185 180 190 185 182 175 162 178 180 190 195 197 208 198 184 185 183 191 188 184 146 177 164 161 159 168 169 175 159 153 177 149 177 165 149 134 125 289 182 159 157 159 150 147 153 147 150 148 149 146 132 130 123 118 122 114 116 113 103 113 108 98 94
188 188 237 225 227 220 212 215 197 174 175 182 190 189 191 185 175 179 188 209 216 195 193 211 199 182 186 135 179 183 168 204 199 203 204 197 193 195 194 188 177 199 164 195 165 165 153 160 162 189 198 232 189 146 175 134 152 141 145 178 158 318 178 155 155 156 156 157 164 160 160 153 151 149 157 149 134 137 127 112 125 114 102 99 95
181 191 213 223 220 216 211 203 203 189 191 181 182 184 194 184 182 204 196 195 210 202 199 208 222 188 197 201 177 192 184 194 187 190 195 190 195 212 182 200 162 159 188 209 168 157 151 134 187 155 225 242 241 195 180 138 141 139 146 148 157 173 209 250 167 159 160 163 172 166 181 177 174 173 157 132 123 135 125 126 127 114 108 107 106
209 201 195 209 216 216 215 206 200 199 189 187 190 194 192 191 189 206 199 203 194 207 199 207 220 223 226 209 154 202 213 173 181 164 186 187 192 210 199 187 167 163 182 194 255 169 163 164 152 141 192 220 221 229 279 134 115 212 152 156 159 164 199 207 183 154 161 171 175 175 187 183 180 179 141 130 152 156 138 129 119 118 112 111 110
227 214 198 204 211 212 213 204 207 196 196 191 195 194 198 198 205 210 198 199 209 183 213 205 213 218 205 230 314 340 230 140 178 168 178 202 184 202 161 185 177 164 176 191 186 198 185 172 144 191 216 227 256 235 338 354 140 155 141 125 136 86 217 182 217 161 167 169 182 181 186 188 184 168 164 158 163 148 133 129 125 124 123 118 115
218 237 228 220 217 211 210 212 204 197 201 198 193 199 207 211 203 203 201 192 196 197 218 194 201 236 223 225 240 239 273 162 195 169 175 173 205 197 179 164 185 191 187 181 201 193 179 166 137 192 194 227 231 309 247 140 108 122 93 107 120 141 212 210 243 170 173 174 179 180 190 185 182 173 167 169 149 143 138 138 136 130 128 124 120
199 219 225 216 213 214 214 214 216 204 195 199 195 199 200 211 204 206 208 193 205 216 206 200 198 203 209 215 238 250 251 203 268 227 194 172 187 187 180 179 190 200 200 188 188 175 172 205 172 165 229 199 188 233 242 212 217 160 143 110 122 164 181 210 154 92 40 206 183 181 184 174 189 173 156 151 145 146 146 142 139 137 133 129 126
202 218 227 223 209 212 211 211 212 206 196 198 199 197 203 201 196 205 212 202 207 223 238 206 204 211 189 207 213 205 200 197 221 241 229 181 180 182 177 171 192 184 215 208 176 185 198 192 185 194 183 154 199 189 229 226 231 188 133 128 146 202 200 186 126 104 123 128 153 175 178 172 189 167 151 150 155 153 150 144 142 143 136 133 130
207 222 223 222 214 216 214 212 215 210 202 202 197 191 201 202 200 210 210 209 207 202 236 234 212 213 198 195 205 200 215 192 202 206 221 245 196 182 180 174 190 177 186 178 179 189 189 173 189 190 154 172 175 183 146 238 212 112 92 113 177 209 209 148 138 123 128 141 149 157 171 167 165 164 153 159 162 157 152 150 147 144 141 135 131
214 220 220 220 221 220 221 218 214 206 211 204 193 188 198 201 199 212 214 209 198 204 216 233 212 206 199 197 201 204 200 195 196 199 210 193 204 177 173 188 185 177 177 155 203 196 189 164 176 168 174 181 159 130 170 147 192 69 70 118 183 203 180 152 152 144 134 131 148 157 175 179 167 159 159 164 167 161 158 154 149 143 140 135 129
220 225 222 215 218 220 217 219 213 209 212 205 188 187 190 195 202 207 213 209 207 201 214 230 216 184 226 217 223 206 203 211 191 205 199 194 213 164 175 177 168 175 153 160 201 194 180 174 173 167 187 160 153 141 109 190 92 92 249 140 184 184 160 145 157 155 137 135 134 153 167 171 162 158 164 167 165 166 160 153 146 142 141 140 133
226 229 231 224 219 217 212 213 212 206 205 197 187 188 196 195 205 210 210 209 205 204 216 223 212 203 199 214 203 205 198 232 205 193 217 201 191 172 164 176 177 158 160 169 180 185 176 177 186 185 173 158 158 159 139 127 101 100 301 122 117 163 155 152 157 157 148 146 152 161 180 165 158 162 167 161 165 164 158 138 122 123 136 140 135
231 227 237 234 224 219 215 213 208 198 188 185 201 213 194 192 204 216 211 205 195 208 218 219 216 218 200 200 204 194 183 209 192 200 197 198 189 175 163 174 186 169 160 183 174 175 175 193 187 175 170 157 138 118 173 111 118 127 292 137 126 132 150 154 166 164 146 141 112 126 115 144 230 156 140 160 157 121 103 104 110 112 115 126 142
230 229 233 236 231 226 223 217 211 204 196 186 209 216 197 200 186 207 202 213 201 208 215 215 214 217 228 211 192 231 157 197 202 203 198 198 198 169 172 167 178 185 171 193 170 196 174 184 183 167 167 131 147 141 146 119 83 120 237 134 112 106 146 159 162 132 141 134 120 117 135 175 180 116 121 116 109 118 120 117 116 119 119 99 103
230 224 222 226 226 227 223 224 219 208 193 192 204 217 195 192 188 202 208 218 199 211 214 207 226 217 211 217 194 205 183 193 195 200 213 190 204 165 187 190 177 174 191 188 194 188 153 170 176 164 156 153 166 129 95 120 126 172 233 155 135 131 117 134 130 118 130 160 131 123 132 129 112 107 115 127 130 129 131 133 132 131 120 101 84
227 229 230 223 225 227 225 222 217 209 192 200 212 212 203 195 205 208 200 198 209 206 216 219 215 208 207 209 193 203 185 189 205 192 203 197 202 183 198 202 197 197 183 187 200 205 162 179 169 159 171 155 158 131 176 150 132 200 140 129 136 133 108 122 121 119 125 128 125 131 133 125 127 130 135 138 140 139 142 147 147 147 142 146 122
226 225 231 237 230 223 227 219 210 207 200 193 212 214 204 195 202 204 197 193 198 195 197 242 214 195 61 331 97 279 195 193 188 195 192 195 203 191 209 200 207 219 185 205 175 185 174 188 176 153 178 158 158 146 168 122 116 252 136 130 122 119 119 124 127 125 124 131 133 144 150 147 144 148 149 149 150 152 154 158 163 162 167 176 151
221 215 223 230 239 227 226 222 212 208 203 188 189 233 223 202 199 198 187 188 196 197 178 212 184 115 167 221 211 227 186 190 181 185 196 192 195 203 199 207 197 248 185 217 161 178 200 170 148 147 172 158 154 151 151 129 149 251 131 128 117 121 144 119 129 134 144 152 148 153 152 154 159 161 160 159 161 162 164 170 172 176 184 184 149
219 218 223 224 228 224 224 221 213 210 208 199 188 197 207 209 199 196 185 185 192 185 180 187 184 187 210 215 218 212 178 191 185 189 194 193 199 206 192 202 190 208 196 215 176 169 196 141 156 145 150 154 159 153 152 135 129 262 151 126 123 154 167 140 140 140 137 135 139 160 165 157 169 172 167 171 172 173 181 184 184 187 191 179 160
223 218 221 227 229 222 218 219 214 209 207 202 194 190 197 205 200 203 194 185 176 182 178 174 198 209 212 214 202 194 188 194 188 187 194 190 196 207 196 195 189 187 197 202 126 155 134 134 155 156 146 160 163 165 154 141 153 169 172 134 157 184 167 152 152 145 141 142 142 153 147 162 174 180 179 179 184 188 188 194 190 193 192 178 177
236 228 224 220 225 222 217 213 212 208 201 199 195 199 190 197 199 202 193 184 179 178 174 176 205 187 239 219 199 186 189 197 191 196 190 197 193 199 196 195 192 181 201 209 122 158 138 170 163 143 152 188 157 175 150 153 155 165 165 154 166 188 152 171 156 156 154 149 151 153 153 167 181 202 187 191 196 195 193 198 197 196 200 189 188
241 235 229 225 221 220 220 212 209 205 199 196 199 201 199 195 194 189 198 193 183 181 185 188 199 196 208 211 199 185 191 194 197 206 187 196 198 202 192 195 196 179 192 221 139 167 155 169 161 159 162 173 179 158 160 161 160 174 169 160 171 165 149 170 179 136 160 158 165 164 175 174 182 197 199 204 209 205 205 202 204 204 207 204 198
241 236 231 227 220 216 218 215 208 205 198 194 198 202 199 197 191 189 188 187 187 182 185 186 191 210 213 203 200 192 191 182 210 213 185 198 206 201 194 188 194 177 185 199 162 163 162 163 169 165 159 154 180 156 155 149 160 178 183 159 168 169 160 170 190 161 159 167 171 175 183 186 193 199 206 211 211 213 211 208 209 211 213 215 212
248 241 234 230 219 212 210 214 208 202 198 192 192 198 196 206 197 191 186 184 184 183 183 184 192 202 207 201 197 196 195 201 195 204 193 198 202 198 197 186 189 172 170 191 183 159 165 161 160 157 149 164 170 159 159 164 161 176 177 170 178 174 165 177 183 104 133 166 172 186 188 192 200 206 213 212 216 216 213 214 214 217 220 222 223
258 252 241 234 226 216 208 209 206 207 199 187 186 192 189 184 205 194 186 183 182 184 182 191 196 204 201 204 195 199 197 201 199 200 203 196 202 200 196 189 186 162 169 180 179 166 172 158 163 152 166 163 154 164 166 178 158 170 167 174 174 176 165 181 189 169 173 171 192 187 189 202 205 211 207 211 214 215 216 214 218 220 224 225 227
247 259 252 244 239 222 208 204 209 201 188 184 185 178 167 164 209 208 196 182 182 179 180 191 191 209 213 199 198 197 196 200 197 198 198 197 200 203 183 189 187 154 168 163 170 165 195 146 171 162 166 163 165 166 166 165 168 179 167 169 185 180 183 195 196 171 192 179 179 167 185 161 181 197 196 209 209 213 213 213 218 224 227 229 232
235 234 249 247 242 231 217 211 208 200 187 182 182 174 173 179 185 209 188 184 178 169 194 197 212 199 203 200 194 200 197 198 196 191 193 191 195 196 182 182 149 160 168 161 173 177 186 163 161 165 164 158 160 165 147 172 184 194 199 194 190 172 175 186 217 195 180 183 204 188 183 172 179 181 176 201 208 209 209 216 222 233 234 243 247
237 235 231 227 228 226 228 215 211 193 184 187 177 178 186 164 179 205 197 191 181 176 183 200 197 192 198 199 198 186 40 31 7 23 88 13 200 185 174 177 131 181 155 165 169 128 220 166 160 170 163 167 168 165 173 180 190 190 154 196 228 200 187 181 181 171 233 203 210 197 159 182 201 191 199 206 189 191 203 214 217 210 231 257 263
249 241 235 227 241 233 224 215 210 163 174 175 187 190 144 176 195 196 189 198 187 177 188 186 186 195 191 191 68 85 117 132 94 88 109 90 42 2 186 177 157 168 159 146 116 133 256 172 169 171 167 176 170 177 181 183 168 136 168 189 212 182 204 222 119 100 63 281 278 222 168 119 290 228 224 143 119 188 61 107 39 44 63 42 10
254 232 222 226 219 219 205 208 190 183 183 204 234 192 179 185 174 212 182 189 187 180 183 183 182 184 185 176 145 112 114 122 90 57 55 58 81 83 50 55 82 158 150 125 224 186 221 165 160 174 172 169 170 171 170 158 159 183 181 196 217 202 204 212 176 114 36 355 245 294 173 107 300 278 113 92 60 58 56 55 36 46 41 32 15
252 232 223 221 213 208 200 178 166 166 174 136 160 223 176 194 200 196 179 178 200 178 180 181 177 175 172 157 149 157 166 143 141 114 67 62 82 73 63 62 67 69 71 170 189 189 171 165 169 175 168 167 149 170 150 156 153 160 177 187 210 236 248 244 250 134 74 339 307 261 73 321 295 326 278 68 75 64 64 43 35 45 36 23 18
258 235 228 210 216 203 166 160 170 170 164 151 192 209 181 179 213 223 186 175 183 175 176 180 176 173 167 160 142 148 111 102 132 112 102 98 90 96 98 90 66 62 56 47 32 40 152 141 141 132 130 125 136 112 90 95 123 160 178 201 168 211 234 242 67 90 48 347 286 274 245 78 359 284 78 100 98 92 90 74 32 50 49 29 23
258 258 247 103 88 161 181 195 178 174 202 161 194 214 178 168 176 236 181 182 170 160 161 164 173 163 164 157 150 142 141 146 114 119 128 129 130 131 128 115 101 74 48 30 42 39 37 103 113 107 88 93 98 95 87 74 217 196 218 169 150 151 83 79 78 73 42 2 349 330 284 80 359 307 134 105 108 106 90 102 92 56 46 37 25
23 45 52 52 33 33 64 160 156 143 57 88 218 192 174 164 162 194 172 158 160 151 139 128 121 148 147 150 150 141 143 145 129 139 146 150 138 124 108 91 79 60 40 22 13 33 67 72 83 86 74 54 75 101 98 103 61 37 33 72 80 92 115 127 118 93 76 31 360 313 299 79 1 304 273 18 124 138 127 112 85 62 42 49 36
33 47 50 54 57 61 44 45 71 63 68 73 221 200 174 153 148 152 149 129 131 138 134 132 111 130 134 140 137 138 142 117 75 105 125 126 112 99 87 92 90 75 63 43 41 47 51 62 67 70 62 56 46 41 20 353 25 119 143 144 154 147 153 173 139 108 72 48 11 340 309 89 22 329 317 276 233 177 171 129 119 121 154 110 84
41 29 28 35 33 42 44 45 53 36 29 54 81 289 212 154 155 129 125 120 108 112 134 138 147 139 136 150 132 129 122 92 60 92 108 105 92 91 93 73 82 90 85 71 58 68 77 82 88 91 93 86 76 61 43 30 18 340 288 181 164 203 213 172 129 126 75 60 31 3 321 288 32 342 310 307 21 323 313 309 87 139 153 128 103
41 32 27 33 27 41 46 43 34 60 2 27 62 52 10 2 107 122 115 103 94 99 87 69 79 65 32 33 100 100 89 114 105 55 108 118 124 127 122 119 106 97 96 97 92 83 91 96 98 100 94 85 75 63 48 39 24 2 324 262 68 266 227 212 148 146 117 76 47 351 297 44 337 31 325 313 257 187 241 342 354 101 169 181 134
53 38 43 62 35 40 38 43 41 42 14 6 42 46 33 34 79 104 105 106 88 57 62 76 72 70 61 34 36 78 103 82 80 93 271 193 131 143 134 124 115 111 117 123 113 112 112 105 101 95 82 72 70 68 61 49 38 32 33 25 2 339 345 101 147 162 152 80 36 357 310 76 311 79 334 315 310 327 170 326 314 329 354 346 180